Location: Newark
(15.4608°S, 41.1635°W)
Time: 00:55:29
(UTC+00:00)

Explorer 11/Cluster Stage 4 - Pass Details

Date: 08 August 2021
Orbit: 467 x 1256 km, 28.8° (Epoch: 24 September)

Event Time Altitude Azimuth Distance (km) Brightness Sun altitude
Rises 21:11:02 0° 256° (WSW) 3,427 11.1 -9.0°
Reaches altitude 10° 21:14:30 10° 240° (WSW) 2,320 9.7 -9.8°
Maximum altitude 21:18:22 20° 194° (SSW) 1,587 8.2 -10.7°
Drops below altitude 10° 21:21:43 10° 147° (SSE) 1,974 8.2 -11.5°
Enters shadow 21:22:02 - 144° (SE) 2,053 8.3 -11.6°
